TimeCDT,TemperatureF,Dew PointF,Humidity,Sea Level PressureIn,VisibilityMPH,Wind Direction,Wind SpeedMPH,Gust SpeedMPH,PrecipitationIn,Events,Conditions,WindDirDegrees,DateUTC
12:15 AM,79.9,77.0,91,30.00,10.0,SSE,4.6,-,N/A,,Clear,160,2013-06-26 05:15:00
12:35 AM,80.6,77.2,89,30.00,10.0,SSE,5.8,-,N/A,,Clear,160,2013-06-26 05:35:00
12:55 AM,80.6,77.0,89,30.00,10.0,South,3.5,-,N/A,,Clear,170,2013-06-26 05:55:00
1:15 AM,80.8,77.0,88,29.99,10.0,South,5.8,-,N/A,,Clear,170,2013-06-26 06:15:00
1:35 AM,81.5,77.0,86,29.99,10.0,SSE,5.8,-,N/A,,Clear,160,2013-06-26 06:35:00
1:55 AM,81.1,76.1,85,29.98,10.0,SSE,5.8,-,N/A,,Clear,160,2013-06-26 06:55:00
2:15 AM,80.6,76.1,86,29.98,10.0,South,4.6,-,N/A,,Clear,180,2013-06-26 07:15:00
2:35 AM,80.6,76.1,86,29.98,10.0,South,4.6,-,N/A,,Clear,170,2013-06-26 07:35:00
2:55 AM,81.0,75.7,84,29.98,10.0,South,5.8,-,N/A,,Clear,180,2013-06-26 07:55:00
3:15 AM,81.0,75.6,84,29.98,10.0,South,5.8,-,N/A,,Clear,180,2013-06-26 08:15:00
3:35 AM,81.0,75.6,84,29.98,10.0,South,5.8,-,N/A,,Clear,180,2013-06-26 08:35:00
3:55 AM,80.6,75.7,85,29.98,10.0,South,5.8,-,N/A,,Clear,180,2013-06-26 08:55:00
4:15 AM,80.6,76.1,86,29.98,10.0,South,6.9,-,N/A,,Clear,180,2013-06-26 09:15:00
4:35 AM,81.3,76.1,84,29.98,10.0,SSW,4.6,-,N/A,,Clear,200,2013-06-26 09:35:00
4:55 AM,81.0,75.9,85,29.98,10.0,South,5.8,-,N/A,,Scattered Clouds,170,2013-06-26 09:55:00
5:15 AM,81.1,76.1,85,29.98,10.0,South,8.1,-,N/A,,Scattered Clouds,190,2013-06-26 10:15:00
5:35 AM,81.3,75.9,84,29.99,10.0,South,6.9,-,N/A,,Clear,190,2013-06-26 10:35:00
5:55 AM,80.8,75.7,85,29.99,10.0,South,6.9,-,N/A,,Clear,190,2013-06-26 10:55:00
6:15 AM,80.6,75.6,85,29.99,10.0,South,5.8,-,N/A,,Clear,180,2013-06-26 11:15:00
6:35 AM,80.6,75.2,84,30.00,10.0,South,5.8,-,N/A,,Clear,170,2013-06-26 11:35:00
6:55 AM,81.1,75.4,83,30.00,10.0,South,8.1,-,N/A,,Clear,180,2013-06-26 11:55:00
7:15 AM,81.9,75.7,82,30.01,10.0,South,8.1,-,N/A,,Clear,180,2013-06-26 12:15:00
7:35 AM,82.9,76.1,80,30.01,10.0,South,8.1,-,N/A,,Clear,180,2013-06-26 12:35:00
7:55 AM,84.0,76.1,77,30.02,10.0,South,8.1,-,N/A,,Clear,190,2013-06-26 12:55:00
8:15 AM,85.5,75.9,73,30.02,10.0,South,11.5,-,N/A,,Clear,190,2013-06-26 13:15:00
8:35 AM,86.0,75.2,70,30.03,10.0,SSW,12.7,-,N/A,,Clear,210,2013-06-26 13:35:00
8:55 AM,87.1,75.7,69,30.03,10.0,SSW,10.4,-,N/A,,Clear,200,2013-06-26 13:55:00
9:15 AM,87.3,75.9,69,30.04,10.0,SSW,9.2,-,N/A,,Scattered Clouds,210,2013-06-26 14:15:00
9:55 AM,88.5,73.2,60,30.04,10.0,SSW,12.7,16.1,N/A,,Scattered Clouds,200,2013-06-26 14:55:00
10:15 AM,88.9,73.6,60,30.04,10.0,South,11.5,-,N/A,,Clear,190,2013-06-26 15:15:00
10:35 AM,89.1,74.5,62,30.04,10.0,SSW,6.9,-,N/A,,Clear,200,2013-06-26 15:35:00
10:55 AM,90.1,74.5,60,30.05,10.0,SSW,9.2,-,N/A,,Scattered Clouds,200,2013-06-26 15:55:00
11:15 AM,90.1,73.9,59,30.05,10.0,South,11.5,16.1,N/A,,Scattered Clouds,180,2013-06-26 16:15:00
11:35 AM,90.5,72.9,56,30.05,10.0,South,8.1,-,N/A,,Clear,190,2013-06-26 16:35:00
11:55 AM,90.7,73.8,57,30.05,10.0,SSW,9.2,-,N/A,,Clear,200,2013-06-26 16:55:00
12:15 PM,91.0,72.3,54,30.04,10.0,South,10.4,-,N/A,,Clear,190,2013-06-26 17:15:00
12:35 PM,91.9,72.5,53,30.04,10.0,SSW,9.2,-,N/A,,Clear,210,2013-06-26 17:35:00
12:55 PM,91.8,73.6,55,30.04,10.0,South,10.4,-,N/A,,Clear,180,2013-06-26 17:55:00
1:15 PM,92.1,73.8,55,30.03,10.0,SSW,12.7,16.1,N/A,,Scattered Clouds,200,2013-06-26 18:15:00
1:35 PM,92.3,73.2,54,30.03,10.0,SSW,10.4,-,N/A,,Scattered Clouds,210,2013-06-26 18:35:00
1:55 PM,92.3,73.4,54,30.02,10.0,SSW,9.2,-,N/A,,Clear,200,2013-06-26 18:55:00
2:15 PM,92.3,73.0,53,30.01,10.0,SSW,6.9,-,N/A,,Clear,210,2013-06-26 19:15:00
2:35 PM,92.3,73.4,54,30.01,10.0,South,8.1,-,N/A,,Clear,190,2013-06-26 19:35:00
2:55 PM,92.5,73.6,54,30.00,10.0,South,4.6,-,N/A,,Clear,170,2013-06-26 19:55:00
3:15 PM,92.8,73.8,54,30.00,10.0,South,4.6,-,N/A,,Clear,170,2013-06-26 20:15:00
3:35 PM,91.9,74.1,56,29.99,10.0,South,9.2,-,N/A,,Scattered Clouds,180,2013-06-26 20:35:00
3:55 PM,93.7,75.7,56,29.99,10.0,SSE,11.5,-,N/A,,Mostly Cloudy,150,2013-06-26 20:55:00
4:15 PM,93.0,74.5,55,29.99,10.0,South,13.8,17.3,N/A,,Scattered Clouds,190,2013-06-26 21:15:00
4:35 PM,92.3,73.4,54,29.98,10.0,South,15.0,18.4,N/A,,Clear,170,2013-06-26 21:35:00
4:55 PM,91.8,72.7,53,29.98,10.0,South,12.7,18.4,N/A,,Clear,170,2013-06-26 21:55:00
5:15 PM,91.4,73.2,55,29.98,10.0,South,12.7,-,N/A,,Clear,180,2013-06-26 22:15:00
5:35 PM,90.9,73.2,56,29.97,10.0,South,12.7,18.4,N/A,,Clear,170,2013-06-26 22:35:00
5:55 PM,90.5,72.7,56,29.97,10.0,South,11.5,-,N/A,,Clear,170,2013-06-26 22:55:00
6:15 PM,90.0,72.5,56,29.97,10.0,South,10.4,-,N/A,,Clear,170,2013-06-26 23:15:00
6:35 PM,89.2,71.8,56,29.97,10.0,South,9.2,-,N/A,,Clear,180,2013-06-26 23:35:00
6:55 PM,88.7,72.9,59,29.96,10.0,SSW,9.2,-,N/A,,Clear,200,2013-06-26 23:55:00
7:15 PM,87.8,72.0,59,29.96,10.0,SSW,5.8,-,N/A,,Clear,200,2013-06-27 00:15:00
7:35 PM,86.7,73.0,64,29.96,10.0,South,5.8,-,N/A,,Clear,180,2013-06-27 00:35:00
7:55 PM,85.1,74.1,70,29.96,10.0,South,5.8,-,N/A,,Clear,180,2013-06-27 00:55:00
8:15 PM,83.3,74.3,74,29.96,10.0,South,5.8,-,N/A,,Clear,180,2013-06-27 01:15:00
8:35 PM,82.4,73.9,75,29.96,10.0,South,6.9,-,N/A,,Clear,180,2013-06-27 01:35:00
8:55 PM,82.0,74.8,79,29.96,10.0,South,6.9,-,N/A,,Clear,190,2013-06-27 01:55:00
9:15 PM,81.7,74.7,79,29.96,10.0,SSW,5.8,-,N/A,,Clear,200,2013-06-27 02:15:00
9:35 PM,81.1,74.7,81,29.96,10.0,South,5.8,-,N/A,,Clear,190,2013-06-27 02:35:00
9:55 PM,81.1,74.7,81,29.97,10.0,South,5.8,-,N/A,,Clear,190,2013-06-27 02:55:00
10:15 PM,81.0,75.2,83,29.97,10.0,South,5.8,-,N/A,,Clear,190,2013-06-27 03:15:00
10:35 PM,81.1,75.4,83,29.98,10.0,South,4.6,-,N/A,,Clear,190,2013-06-27 03:35:00
10:55 PM,80.6,75.6,85,29.99,10.0,South,4.6,-,N/A,,Clear,180,2013-06-27 03:55:00
11:15 PM,80.1,75.6,86,30.00,10.0,South,3.5,-,N/A,,Clear,180,2013-06-27 04:15:00
11:35 PM,79.7,75.4,87,30.01,10.0,South,3.5,-,N/A,,Clear,180,2013-06-27 04:35:00
11:55 PM,79.3,75.6,88,30.01,10.0,South,4.6,-,N/A,,Clear,190,2013-06-27 04:55:00